Location: Berlijn
(52.5200°N, 13.4050°E)
Time: 07:54:10
(UTC+02:00)

Envisat - Pass Details

Date: 21 September 2021
Orbit: 764 x 766 km, 98.2° (Epoch: 27 October)

Event Time Altitude Azimuth Distance (km) Brightness Sun altitude
Rises 05:04:14 0° 25° (NNE) 3,246 7.0 -16.5°
Reaches altitude 10° 05:07:16 10° 44° (NE) 2,314 6.6 -16.1°
Maximum altitude 05:10:46 18° 88° (E) 1,794 5.9 -15.6°
Drops below altitude 10° 05:14:15 10° 131° (SE) 2,301 5.8 -15.1°
Sets 05:17:15 0° 150° (SSE) 3,221 6.3 -14.7°
